Weather History for Gillette, WY

Change the Weather History Date:

Monday, March 25, 2013

  Actual Average Record
Temperature  
Mean Temperature 19 °F 37 °F  
Max Temperature 37 °F 50 °F 73 °F (1956)
Min Temperature 0 °F 24 °F -99 °F (1998)
Degree Days  
Heating Degree Days 46 28  
Month to date heating degree days 817 774  
Since 1 July heating degree days 5940 6182  
Cooling Degree Days 0 0  
Month to date cooling degree days 0 0  
Year to date cooling degree days 0 0  
Moisture  
Dew Point 10 °F    
Average Humidity 62    
Maximum Humidity 95    
Minimum Humidity 29    
Precipitation  
Precipitation 0.00 in 0.04 in 0.42 in (1971)
Month to date precipitation 0.28 0.73  
Year to date precipitation 1.41 1.51  
Sea Level Pressure  
Sea Level Pressure 30.32 in    
Wind  
Wind Speed 5 mph (SSW)    
Max Wind Speed 14 mph    
Max Gust Speed 17 mph    
Visibility 10 miles    
Events      
T = Trace of Precipitation, MM = Missing Value Source: NWS Daily Summary

Daily Weather History Graph

Daily Weather History Graph

Search for Another Location

Airport:

Trip Planner

Search our weather history database for the weather conditions in past years. The results will help you decide how hot, cold, wet, or windy it might be!

Date:

Astronomy

Mar. 25, 2013 Rise Set
Actual Time 6:55 AM MDT 7:21 PM MDT
Civil Twilight 6:26 AM MDT 7:50 PM MDT
Nautical Twilight 5:52 AM MDT 8:24 PM MDT
Astronomical Twilight 5:16 AM MDT 9:00 PM MDT
Moon 5:53 PM MDT 5:43 AM MDT
Length of Visible Light 13h 23m
Length of Day
12h 25m
Waxing Gibbous, 97% of the Moon is Illuminated
Mar 25
Waxing Gibbous
Mar 27
Full
Apr 2
Last Quarter
Apr 10
New
Apr 18
First Quarter

Hourly Weather History & Observations

Time (MDT) Temp. Windchill Dew Point Humidity Pressure Visibility Wind Dir Wind Speed Gust Speed Precip Events Conditions
12:53 AM 1.0 °F -11.7 °F -0.9 °F 91% 30.45 in 10.0 mi South 6.9 mph - N/A   Clear
1:53 AM 3.9 °F -6.9 °F 1.0 °F 88% 30.43 in 10.0 mi South 5.8 mph - N/A   Clear
2:53 AM 5.0 °F - 1.9 °F 87% 30.43 in 10.0 mi Calm Calm - N/A   Clear
3:53 AM 8.1 °F -4.3 °F 5.0 °F 87% 30.41 in 10.0 mi SW 8.1 mph - N/A   Clear
4:53 AM 3.9 °F -3.4 °F 1.9 °F 91% 30.42 in - SW 3.5 mph - N/A   Clear
5:53 AM 10.9 °F - 7.0 °F 84% 30.40 in 10.0 mi Calm Calm - N/A   Clear
6:53 AM 10.0 °F - 7.0 °F 87% 30.40 in 10.0 mi Calm Calm - N/A   Clear
7:53 AM 12.9 °F - 9.0 °F 84% 30.40 in 10.0 mi Calm Calm - N/A   Clear
8:53 AM 19.0 °F - 12.0 °F 74% 30.38 in 10.0 mi Calm Calm - N/A   Clear
9:53 AM 19.0 °F 11.1 °F 12.0 °F 74% 30.40 in 10.0 mi SW 5.8 mph - N/A   Clear
10:53 AM 23.0 °F 14.7 °F 10.9 °F 60% 30.41 in 10.0 mi SW 6.9 mph - N/A   Clear
11:53 AM 26.1 °F 18.4 °F 10.9 °F 53% 30.39 in 10.0 mi WSW 6.9 mph - N/A   Clear
12:53 PM 28.9 °F 22.8 °F 10.9 °F 47% 30.37 in 10.0 mi SW 5.8 mph - N/A   Clear
1:53 PM 32.0 °F 25.6 °F 10.0 °F 40% 30.32 in 10.0 mi SW 6.9 mph - N/A   Clear
2:53 PM 34.0 °F 28.0 °F 14.0 °F 44% 30.29 in 10.0 mi SW 6.9 mph - N/A   Clear
3:53 PM 36.0 °F 28.5 °F 14.0 °F 41% 30.27 in 10.0 mi SSW 10.4 mph - N/A   Clear
4:53 PM 37.0 °F 29.8 °F 12.9 °F 37% 30.25 in 10.0 mi South 10.4 mph - N/A   Clear
5:53 PM 37.0 °F 31.6 °F 9.0 °F 31% 30.22 in 10.0 mi South 6.9 mph - N/A   Clear
6:53 PM 33.1 °F 27.7 °F 12.9 °F 43% 30.22 in 10.0 mi South 5.8 mph - N/A   Clear
7:53 PM 24.1 °F - 17.1 °F 75% 30.23 in 10.0 mi Calm Calm - N/A   Clear
8:53 PM 21.9 °F - 16.0 °F 78% 30.21 in 10.0 mi Calm Calm - N/A   Clear
9:53 PM 19.9 °F 11.1 °F 15.1 °F 81% 30.20 in 10.0 mi South 6.9 mph - N/A   Clear
10:53 PM 24.1 °F 13.7 °F 15.1 °F 69% 30.16 in 10.0 mi South 10.4 mph - N/A   Clear
11:53 PM 23.0 °F 12.4 °F 15.1 °F 72% 30.14 in 10.0 mi SSE 10.4 mph - N/A   Clear